Weather History for Rickenbacker, OH

Change the Weather History Date:

Saturday, April 20, 2013

  Actual Average Record
Temperature  
Mean Temperature 43 °F -  
Max Temperature 49 °F 64 °F 80 °F (2004)
Min Temperature 37 °F 43 °F 32 °F (1997)
Degree Days  
Heating Degree Days 22    
Moisture  
Dew Point 26 °F    
Average Humidity 53    
Maximum Humidity 78    
Minimum Humidity 34    
Precipitation  
Precipitation 0.00 in - - ()
Sea Level Pressure  
Sea Level Pressure 30.18 in    
Wind  
Wind Speed 13 mph (West)    
Max Wind Speed 20 mph    
Max Gust Speed 30 mph    
Visibility 10 miles    
Events      
Averages and records for this station are not official NWS values.
T = Trace of Precipitation, MM = Missing Value Source: NWS Daily Summary

Daily Weather History Graph

Daily Weather History Graph

Search for Another Location

Airport:

Trip Planner

Search our weather history database for the weather conditions in past years. The results will help you decide how hot, cold, wet, or windy it might be!

Date:

Astronomy

Apr. 20, 2013 Rise Set
Actual Time 6:46 AM EDT 8:15 PM EDT
Civil Twilight 6:18 AM EDT 8:43 PM EDT
Nautical Twilight 5:44 AM EDT 9:17 PM EDT
Astronomical Twilight 5:08 AM EDT 9:54 PM EDT
Moon 2:58 PM EDT (4/20) 3:34 AM EDT (4/20)
Length of Visible Light 14h 25m
Length of Day
13h 28m
Waxing Gibbous, 71% of the Moon is Illuminated
Apr 20
Waxing Gibbous
Apr 25
Full
May 2
Last Quarter
May 9
New
May 18
First Quarter

Hourly Weather History & Observations

Time (EDT) Temp. Windchill Dew Point Humidity Pressure Visibility Wind Dir Wind Speed Gust Speed Precip Events Conditions
12:15 AM 41.4 °F 33.6 °F 30.6 °F 65% 29.95 in 10.0 mi WSW 15.0 mph 20.7 mph N/A   Overcast
12:35 AM 41.0 °F 33.9 °F 30.9 °F 67% 29.96 in 10.0 mi SW 12.7 mph 17.3 mph N/A   Mostly Cloudy
12:55 AM 40.8 °F 33.7 °F 31.1 °F 68% 29.97 in 10.0 mi SW 12.7 mph 18.4 mph N/A   Scattered Clouds
1:15 AM 40.1 °F 32.7 °F 30.9 °F 70% 29.97 in 10.0 mi SW 12.7 mph 17.3 mph N/A   Scattered Clouds
1:35 AM 40.3 °F 34.4 °F 30.6 °F 68% 29.97 in 10.0 mi SW 9.2 mph - N/A   Mostly Cloudy
1:55 AM 40.5 °F 33.2 °F 31.1 °F 69% 29.98 in 10.0 mi SW 12.7 mph 18.4 mph N/A   Overcast
2:35 AM 40.6 °F 32.7 °F 31.3 °F 69% 29.98 in 10.0 mi SW 15.0 mph 21.9 mph N/A   Overcast
2:55 AM 40.8 °F 33.3 °F 31.1 °F 68% 29.98 in 10.0 mi SW 13.8 mph 25.3 mph N/A   Overcast
3:15 AM 40.5 °F 33.2 °F 31.5 °F 70% 29.99 in 10.0 mi West 12.7 mph 25.3 mph N/A   Overcast
3:35 AM 38.3 °F 31.9 °F 31.8 °F 77% 29.99 in 10.0 mi WSW 9.2 mph - N/A   Scattered Clouds
3:55 AM 37.8 °F 30.7 °F 31.5 °F 78% 29.99 in 10.0 mi WSW 10.4 mph - N/A   Clear
4:15 AM 38.1 °F 31.7 °F 31.3 °F 76% 30.00 in 10.0 mi WSW 9.2 mph - N/A   Clear
4:35 AM 38.1 °F 31.2 °F 30.9 °F 75% 30.01 in 10.0 mi WSW 10.4 mph - N/A   Scattered Clouds
4:55 AM 39.0 °F 31.4 °F 31.5 °F 74% 30.01 in 10.0 mi WSW 12.7 mph 19.6 mph N/A   Overcast
5:15 AM 39.4 °F 31.8 °F 31.6 °F 74% 30.02 in 10.0 mi WSW 12.7 mph 18.4 mph N/A   Overcast
5:35 AM 39.6 °F 31.3 °F 31.8 °F 74% 30.02 in 10.0 mi WSW 15.0 mph 18.4 mph N/A   Overcast
5:55 AM 38.7 °F 30.5 °F 31.3 °F 75% 30.03 in 10.0 mi WSW 13.8 mph 18.4 mph N/A   Mostly Cloudy
6:15 AM 37.9 °F 32.1 °F 31.5 °F 77% 30.03 in 10.0 mi WSW 8.1 mph - N/A   Mostly Cloudy
6:35 AM 37.8 °F 31.3 °F 31.1 °F 77% 30.04 in 10.0 mi West 9.2 mph - N/A   Mostly Cloudy
6:55 AM 39.0 °F 33.4 °F 31.6 °F 75% 30.05 in 10.0 mi West 8.1 mph - N/A   Overcast
7:15 AM 39.2 °F 31.6 °F 31.8 °F 75% 30.07 in 10.0 mi West 12.7 mph - N/A   Overcast
7:35 AM 39.4 °F 29.8 °F 29.3 °F 67% 30.08 in 10.0 mi West 19.6 mph 26.5 mph N/A   Overcast
7:55 AM 39.2 °F 30.2 °F 25.7 °F 58% 30.09 in 10.0 mi West 17.3 mph 21.9 mph N/A   Mostly Cloudy
8:15 AM 39.2 °F 30.2 °F 25.5 °F 58% 30.10 in 10.0 mi West 17.3 mph 25.3 mph N/A   Scattered Clouds
8:35 AM 40.1 °F 30.7 °F 25.9 °F 57% 30.11 in 10.0 mi West 19.6 mph 26.5 mph N/A   Scattered Clouds
8:55 AM 41.0 °F 32.8 °F 25.7 °F 55% 30.13 in 10.0 mi West 16.1 mph 24.2 mph N/A   Clear
9:15 AM 41.5 °F 32.9 °F 25.7 °F 53% 30.13 in 10.0 mi West 18.4 mph 23.0 mph N/A   Scattered Clouds
9:35 AM 42.1 °F 33.9 °F 25.9 °F 53% 30.15 in 10.0 mi West 17.3 mph 23.0 mph N/A   Scattered Clouds
9:55 AM 42.8 °F 34.3 °F 25.3 °F 50% 30.15 in 10.0 mi West 19.6 mph 24.2 mph N/A   Scattered Clouds
10:15 AM 43.0 °F 35.7 °F 25.3 °F 50% 30.17 in 10.0 mi West 15.0 mph 23.0 mph N/A   Mostly Cloudy
10:35 AM 43.5 °F 36.1 °F 24.6 °F 47% 30.18 in 10.0 mi West 16.1 mph 25.3 mph N/A   Scattered Clouds
10:55 AM 44.2 °F 36.4 °F 25.5 °F 48% 30.19 in 10.0 mi West 18.4 mph 23.0 mph N/A   Mostly Cloudy
11:15 AM 44.1 °F 35.9 °F 24.3 °F 46% 30.20 in 10.0 mi West 19.6 mph 26.5 mph N/A   Mostly Cloudy
11:35 AM 44.8 °F 38.7 °F 25.0 °F 46% 30.20 in 10.0 mi WSW 12.7 mph 20.7 mph N/A   Mostly Cloudy
11:55 AM 45.1 °F 38.8 °F 25.3 °F 46% 30.21 in 10.0 mi West 13.8 mph 25.3 mph N/A   Overcast
12:15 PM 44.8 °F 38.0 °F 26.1 °F 48% 30.21 in 10.0 mi West 15.0 mph 23.0 mph N/A   Mostly Cloudy
12:35 PM 45.5 °F 38.6 °F 26.1 °F 47% 30.22 in 10.0 mi West 16.1 mph 23.0 mph N/A   Mostly Cloudy
12:55 PM 46.2 °F 39.3 °F 25.0 °F 43% 30.22 in 10.0 mi West 17.3 mph 23.0 mph N/A   Mostly Cloudy
1:15 PM 45.7 °F 38.3 °F 25.0 °F 44% 30.22 in 10.0 mi West 18.4 mph 21.9 mph N/A   Mostly Cloudy
1:35 PM 47.1 °F - 25.7 °F 43% 30.22 in 10.0 mi WNW 17.3 mph 21.9 mph N/A   Mostly Cloudy
1:55 PM 48.0 °F - 25.7 °F 42% 30.23 in 10.0 mi WSW 15.0 mph 26.5 mph N/A   Mostly Cloudy
2:15 PM 46.4 °F 39.5 °F 23.9 °F 41% 30.23 in 10.0 mi West 17.3 mph 24.2 mph N/A   Overcast
2:35 PM 47.8 °F - 24.6 °F 40% 30.23 in 10.0 mi WNW 16.1 mph 24.2 mph N/A   Overcast
2:55 PM 48.2 °F - 25.2 °F 41% 30.24 in 10.0 mi West 13.8 mph 21.9 mph N/A   Overcast
3:15 PM 48.2 °F - 25.5 °F 41% 30.24 in 10.0 mi West 15.0 mph 24.2 mph N/A   Mostly Cloudy
3:35 PM 49.3 °F - 24.6 °F 38% 30.25 in 10.0 mi WNW 15.0 mph 23.0 mph N/A   Scattered Clouds
3:55 PM 49.6 °F - 23.9 °F 37% 30.25 in 10.0 mi WNW 11.5 mph 29.9 mph N/A   Mostly Cloudy
4:15 PM 48.2 °F - 22.8 °F 37% 30.26 in 10.0 mi WNW 16.1 mph - N/A   Overcast
4:35 PM 48.4 °F - 22.6 °F 36% 30.26 in 10.0 mi WNW 10.4 mph 18.4 mph N/A   Overcast
4:55 PM 48.4 °F - 23.4 °F 37% 30.27 in 10.0 mi West 10.4 mph 16.1 mph N/A   Overcast
5:15 PM 48.6 °F - 23.0 °F 37% 30.27 in 10.0 mi WNW 9.2 mph - N/A   Mostly Cloudy
5:35 PM 48.2 °F - 21.2 °F 34% 30.27 in 10.0 mi WNW 16.1 mph - N/A   Mostly Cloudy
5:55 PM 48.6 °F - 22.1 °F 35% 30.28 in 10.0 mi WNW 12.7 mph 18.4 mph N/A   Scattered Clouds
6:15 PM 48.7 °F - 21.4 °F 34% 30.28 in 10.0 mi WNW 11.5 mph 18.4 mph N/A   Scattered Clouds
6:35 PM 48.7 °F - 22.8 °F 36% 30.29 in 10.0 mi NW 10.4 mph - N/A   Mostly Cloudy
6:55 PM 48.6 °F - 22.1 °F 35% 30.29 in 10.0 mi NW 11.5 mph - N/A   Overcast
7:15 PM 48.0 °F - 21.9 °F 36% 30.29 in 10.0 mi WNW 15.0 mph 18.4 mph N/A   Mostly Cloudy
7:35 PM 47.3 °F - 20.7 °F 35% 30.30 in 10.0 mi NW 10.4 mph - N/A   Scattered Clouds
7:55 PM 46.2 °F 41.7 °F 21.6 °F 38% 30.31 in 10.0 mi NNW 9.2 mph - N/A   Scattered Clouds
8:15 PM 44.8 °F 41.6 °F 22.5 °F 41% 30.31 in 10.0 mi NNW 5.8 mph - N/A   Clear
8:35 PM 43.9 °F 39.3 °F 23.0 °F 44% 30.33 in 10.0 mi NW 8.1 mph - N/A   Clear
8:55 PM 43.2 °F 39.0 °F 22.6 °F 44% 30.33 in 10.0 mi NNW 6.9 mph - N/A   Clear
9:15 PM 42.6 °F 39.0 °F 23.0 °F 46% 30.34 in 10.0 mi NNW 5.8 mph - N/A   Clear
9:35 PM 41.9 °F 39.0 °F 23.2 °F 47% 30.36 in 10.0 mi NNW 4.6 mph - N/A   Clear
9:55 PM 41.5 °F 38.6 °F 23.7 °F 49% 30.37 in 10.0 mi NNW 4.6 mph - N/A   Clear
10:15 PM 41.2 °F 39.2 °F 23.9 °F 50% 30.38 in 10.0 mi NNW 3.5 mph - N/A   Clear
10:35 PM 40.8 °F 37.8 °F 23.7 °F 51% 30.39 in 10.0 mi NNW 4.6 mph - N/A   Clear
10:55 PM 40.5 °F 38.4 °F 23.5 °F 51% 30.39 in 10.0 mi NNW 3.5 mph - N/A   Clear
11:15 PM 39.7 °F 36.5 °F 23.7 °F 53% 30.40 in 10.0 mi North 4.6 mph - N/A   Clear
11:35 PM 40.1 °F 38.0 °F 23.2 °F 51% 30.40 in 10.0 mi North 3.5 mph - N/A   Clear
11:55 PM 39.7 °F 35.6 °F 23.4 °F 52% 30.40 in 10.0 mi North 5.8 mph - N/A   Clear